{"data":{"norad_id":44299,"intl_designator":"2019-030A","name":"COSMOS 2534 (758)","alt_names":[],"object_type":"PAYLOAD","status":"ACTIVE","operator":null,"country":"CIS","launch_date":"2019-05-27","launch_site_code":"PLMSC","launch_vehicle":null,"mission":null,"orbit_class":"UNKNOWN","rcs_meters":null,"size_class":null,"mass_kg":null,"dimensions":null,"purposes":["nav"],"wikipedia_slug":null,"has_3d_model":false,"image_url":null,"decayed_at":null,"tle_current":{"epoch":"2026-05-24T03:20:39.664608Z","epoch_age_seconds":159531,"freshness":"FRESH","line1":"1 44299U 19030A   26144.13934797  .00000034  00000+0  00000+0 0  9996","line2":"2 44299  64.3666 193.4262 0012892 275.4828 134.9025  2.13102273 54415","mean_motion":2.13102273,"eccentricity":0.0012892,"inclination_deg":64.3666,"raan_deg":193.4262,"arg_perigee_deg":275.4828,"mean_anomaly_deg":134.9025,"bstar":0,"rev_number":5441,"period_min":675.73188203394,"perigee_km":19096.980725391,"apogee_km":19162.750559404,"semimajor_km":25508.002642398,"source":"CELESTRAK","updated_at":"2026-05-25T13:38:23.895618Z"}}}